Weather History for Marfa, TX

Change the Weather History Date:

Tuesday, December 6, 2011

  Actual Average Record
Temperature  
Mean Temperature 27 °F -  
Max Temperature 35 °F 56 °F 73 °F (2007)
Min Temperature 19 °F 27 °F 14 °F (2010)
Degree Days  
Heating Degree Days 38    
Moisture  
Dew Point 19 °F    
Average Humidity 77    
Maximum Humidity 93    
Minimum Humidity 48    
Precipitation  
Precipitation 0.00 in - - ()
Sea Level Pressure  
Sea Level Pressure 30.23 in    
Wind  
Wind Speed 15 mph (NW)    
Max Wind Speed 24 mph    
Max Gust Speed 28 mph    
Visibility 10 miles    
Events      
Averages and records for this station are not official NWS values.
T = Trace of Precipitation, MM = Missing Value Source: NWS Daily Summary

Daily Weather History Graph

Daily Weather History Graph

Search for Another Location

Airport:

Trip Planner

Search our weather history database for the weather conditions in past years. The results will help you decide how hot, cold, wet, or windy it might be!

Date:

Astronomy

Dec. 06, 2011 Rise Set
Actual Time 7:38 AM CST 5:55 PM CST
Civil Twilight 7:12 AM CST 6:21 PM CST
Nautical Twilight 6:42 AM CST 6:51 PM CST
Astronomical Twilight 6:13 AM CST 7:20 PM CST
Moon 3:16 PM CST (12/6) 4:08 AM CST (12/6)
Length of Visible Light 11h 08m
Length of Day
10h 16m
Waxing Gibbous, 87% of the Moon is Illuminated
Dec 6
Waxing Gibbous
Dec 10
Full
Dec 17
Last Quarter
Dec 24
New
Jan 1
First Quarter

Hourly Weather History & Observations

Time (CST) Temp. Windchill Dew Point Humidity Pressure Visibility Wind Dir Wind Speed Gust Speed Precip Events Conditions
12:15 AM 24.8 °F 10.3 °F 21.2 °F 86% 30.20 in 10.0 mi NNE 20.7 mph 24.2 mph N/A   Overcast
12:35 AM 23.0 °F 8.3 °F 19.4 °F 86% 30.20 in 10.0 mi NNE 19.6 mph 24.2 mph N/A   Overcast
12:55 AM 23.0 °F 8.3 °F 19.4 °F 86% 30.20 in 10.0 mi NNE 19.6 mph 24.2 mph N/A   Overcast
1:15 AM 23.0 °F 9.2 °F 19.4 °F 86% 30.20 in 9.0 mi NNE 17.3 mph 23.0 mph N/A   Overcast
1:35 AM 21.2 °F 6.4 °F 19.4 °F 93% 30.21 in 10.0 mi NNE 18.4 mph - N/A   Overcast
2:15 AM 21.2 °F 7.3 °F 19.4 °F 93% 30.21 in 10.0 mi NNE 16.1 mph - N/A   Overcast
2:35 AM 21.2 °F 7.3 °F 19.4 °F 93% 30.21 in 10.0 mi NNE 16.1 mph 23.0 mph N/A   Overcast
2:55 AM 21.2 °F 6.8 °F 19.4 °F 93% 30.21 in 10.0 mi NNE 17.3 mph - N/A   Overcast
3:15 AM 21.2 °F 7.3 °F 17.6 °F 86% 30.21 in 10.0 mi North 16.1 mph - N/A   Overcast
3:35 AM 21.2 °F 8.3 °F 17.6 °F 86% 30.21 in 10.0 mi NNE 13.8 mph - N/A   Overcast
3:55 AM 19.4 °F 5.5 °F 17.6 °F 93% 30.20 in 10.0 mi NNE 15.0 mph - N/A   Overcast
4:15 AM 21.2 °F 8.9 °F 17.6 °F 86% 30.20 in 10.0 mi NNE 12.7 mph - N/A   Overcast
4:35 AM 21.2 °F 10.1 °F 17.6 °F 86% 30.20 in 10.0 mi NNE 10.4 mph - N/A   Overcast
4:55 AM 21.2 °F 8.3 °F 17.6 °F 86% 30.20 in 10.0 mi NNE 13.8 mph - N/A   Overcast
5:15 AM 19.4 °F 9.5 °F 17.6 °F 93% 30.20 in 10.0 mi NE 8.1 mph - N/A   Overcast
5:35 AM 19.4 °F 8.6 °F 17.6 °F 93% 30.19 in 10.0 mi NE 9.2 mph - N/A   Overcast
5:55 AM 19.4 °F 7.2 °F 17.6 °F 93% 30.20 in 10.0 mi NE 11.5 mph - N/A   Overcast
6:15 AM 19.4 °F 7.2 °F 17.6 °F 93% 30.20 in 10.0 mi NE 11.5 mph - N/A   Overcast
6:35 AM 21.2 °F 10.9 °F 17.6 °F 86% 30.21 in 10.0 mi NE 9.2 mph - N/A   Overcast
6:55 AM 21.2 °F 13.6 °F 17.6 °F 86% 30.21 in 10.0 mi North 5.8 mph - N/A   Overcast
7:15 AM 19.4 °F 8.6 °F 17.6 °F 93% 30.22 in 10.0 mi North 9.2 mph - N/A   Overcast
7:55 AM 19.4 °F 9.5 °F 17.6 °F 93% 30.23 in 10.0 mi North 8.1 mph - N/A   Overcast
8:15 AM 19.4 °F 9.5 °F 17.6 °F 93% 30.24 in 5.0 mi NNW 8.1 mph - N/A   Overcast
8:35 AM 19.4 °F 11.5 °F 17.6 °F 93% 30.25 in 3.0 mi North 5.8 mph - N/A   Overcast
8:55 AM 19.4 °F 11.5 °F 17.6 °F 93% 30.26 in 8.0 mi North 5.8 mph - N/A   Scattered Clouds
9:15 AM 21.2 °F 16.4 °F 17.6 °F 86% 30.27 in 9.0 mi NNW 3.5 mph - N/A   Mostly Cloudy
11:35 AM 28.4 °F 18.0 °F 21.2 °F 74% 30.29 in 10.0 mi WNW 12.7 mph - N/A   Overcast
11:55 AM 28.4 °F 18.0 °F 21.2 °F 74% 30.29 in 10.0 mi WNW 12.7 mph 16.1 mph N/A   Overcast
12:15 PM 30.2 °F 19.3 °F 21.2 °F 69% 30.28 in 10.0 mi West 15.0 mph - N/A   Overcast
12:35 PM 30.2 °F 19.3 °F 21.2 °F 69% 30.27 in 10.0 mi West 15.0 mph - N/A   Overcast
12:55 PM 32.0 °F 20.1 °F 21.2 °F 64% 30.26 in 10.0 mi West 19.6 mph 25.3 mph N/A   Mostly Cloudy
1:15 PM 32.0 °F 20.5 °F 21.2 °F 64% 30.25 in 10.0 mi West 18.4 mph - N/A   Partly Cloudy
1:35 PM 33.8 °F 23.9 °F 21.2 °F 60% 30.24 in 10.0 mi West 15.0 mph 21.9 mph N/A   Clear
1:55 PM 33.8 °F 23.2 °F 21.2 °F 60% 30.23 in 10.0 mi West 17.3 mph 24.2 mph N/A   Clear
2:15 PM 33.8 °F 23.9 °F 21.2 °F 60% 30.23 in 10.0 mi West 15.0 mph 21.9 mph N/A   Clear
2:35 PM 33.8 °F 23.5 °F 21.2 °F 60% 30.23 in 10.0 mi West 16.1 mph 21.9 mph N/A   Clear
3:15 PM 33.8 °F 24.8 °F 19.4 °F 56% 30.23 in 10.0 mi WSW 12.7 mph 20.7 mph N/A   Clear
3:35 PM 35.6 °F 25.2 °F 19.4 °F 52% 30.23 in 10.0 mi West 18.4 mph 23.0 mph N/A   Clear
3:55 PM 33.8 °F 23.5 °F 19.4 °F 56% 30.24 in 10.0 mi West 16.1 mph 24.2 mph N/A   Clear
4:15 PM 33.8 °F 22.5 °F 15.8 °F 48% 30.23 in 10.0 mi West 19.6 mph 24.2 mph N/A   Clear
4:35 PM 33.8 °F 21.6 °F 15.8 °F 48% 30.22 in 10.0 mi West 23.0 mph 27.6 mph N/A   Clear
4:55 PM 33.8 °F 21.3 °F 17.6 °F 52% 30.21 in 10.0 mi West 24.2 mph - N/A   Clear
5:15 PM 32.0 °F 20.8 °F 19.4 °F 60% 30.22 in 10.0 mi West 17.3 mph - N/A   Clear
5:35 PM 32.0 °F 22.5 °F 19.4 °F 60% 30.24 in 10.0 mi West 12.7 mph 21.9 mph N/A   Clear
5:55 PM 30.2 °F 22.6 °F 19.4 °F 64% 30.25 in 10.0 mi West 8.1 mph - N/A   Clear
6:15 PM 28.4 °F 22.2 °F 19.4 °F 69% 30.27 in 10.0 mi West 5.8 mph - N/A   Clear
6:35 PM 28.4 °F 17.5 °F 19.4 °F 69% 30.26 in 10.0 mi West 13.8 mph - N/A   Clear
6:55 PM 28.4 °F 17.0 °F 19.4 °F 69% 30.26 in 10.0 mi West 15.0 mph - N/A   Clear
7:15 PM 28.4 °F 17.5 °F 21.2 °F 74% 30.27 in 10.0 mi West 13.8 mph - N/A   Clear
7:35 PM 28.4 °F 18.0 °F 21.2 °F 74% 30.27 in 10.0 mi West 12.7 mph - N/A   Clear
7:55 PM 28.4 °F 24.6 °F 21.2 °F 74% 30.29 in 10.0 mi West 3.5 mph - N/A   Clear
8:15 PM 26.6 °F 20.0 °F 19.4 °F 74% 30.29 in 10.0 mi West 5.8 mph - N/A   Clear
8:35 PM 26.6 °F 17.5 °F 19.4 °F 74% 30.30 in 10.0 mi WSW 9.2 mph - N/A   Clear
8:55 PM 26.6 °F 16.2 °F 21.2 °F 80% 30.30 in 10.0 mi West 11.5 mph - N/A   Clear
9:15 PM 26.6 °F 13.8 °F 21.2 °F 80% 30.30 in 10.0 mi West 17.3 mph - N/A   Clear
9:35 PM 28.4 °F 16.6 °F 19.4 °F 69% 30.30 in 10.0 mi West 16.1 mph - N/A   Clear
9:55 PM 28.4 °F 18.5 °F 19.4 °F 69% 30.31 in 10.0 mi West 11.5 mph - N/A   Clear
10:15 PM 26.6 °F 21.2 °F 19.4 °F 74% 30.32 in 10.0 mi WNW 4.6 mph - N/A   Clear
10:35 PM 24.8 °F 20.5 °F 19.4 °F 80% 30.33 in 10.0 mi North 3.5 mph - N/A   Clear
10:55 PM 26.6 °F 18.2 °F 19.4 °F 74% 30.32 in 10.0 mi West 8.1 mph - N/A   Clear
11:15 PM 26.6 °F 19.1 °F 17.6 °F 69% 30.33 in 10.0 mi SW 6.9 mph - N/A   Clear
11:55 PM 26.6 °F 20.0 °F 15.8 °F 64% 30.33 in 10.0 mi SSE 5.8 mph - N/A   Clear